DMSP 5D-2 F13 DEB, 40399

Orbit data source: Space-Track

DMSP 5D-2 F13 DEB, 40399 is space debris in SSO originally from a launch on Fri, 24 Mar 1995 UTC launched from the Air Force Western Test Range (AFWTR). Debris objects in space refer to the collection of defunct objects orbiting the Earth. Examples of debris include non-operational satellites, rocket bodies, and fragments generated from explosions, collisions, or faulty payload assembly.

Loading next visibility...
Identifier
40399, 1995-015L
Orbit
SSO
Country
Flag of USUS
Related business
Manufacturer
Unknown
Mission
Spacecraft
Bus & Motor
Unknown
Mass
Unknown
Launch date (UTC)
1995-03-24 (31 years ago)
Launch vehicle
Unknown
Launch site
Air Force Western Test Range (AFWTR)
Object type
Payload
Rocket body
Debris
Shape & HBR
Unknown shape, 0.1 m
Radar Cross Section
Small (<0.1 m²)

Expand to show TLE details & history
Last TLE update: 1 day ago

TLE from 1 day ago
0 DMSP 5D-2 F13 DEB
1 40399U 95015L   25312.51991273  .00005506  00000-0  20886-2 0  9997
2 40399  98.7189 337.1084 0007826 249.1200 110.9145 14.31460856554863
Epoch: 2025-11-08T12:28Z
TLE epoch observation values (Epoch: 2025-11-08T12:28:40.459Z)
Latitude
-0.00006°
Longitude
101.99148°
Altitude
791.788 km
Speed
7.457 km/s
True Right ascension
22h 28m 26s
True Declination
0° 00' 00"
Sunlit
Object was in daylight at epoch
Visualization orbit readout
Latitude
Unknown
Longitude
Unknown
Altitude
Unknown
Speed
Unknown
Apparent Right ascension
Unknown
Apparent Declination
Unknown
Sunlit
N/A
Visualization observer readout
Local Sidereal Time
18:29:45
Azimuth
Unknown
Elevation
Unknown
Doppler factor
Unknown
Orbital elements
Apogee altitude
789.601 km
Perigee altitude
778.391 km
Semi-major axis
7,162.133 km
Eccentricity
0.00078
Inclination
98.7189°
RAAN
337.1084°
Arg. of periapsis
249.12°
True anomaly
110.99824°
Mean anomaly
110.9145°
Eccentric anomaly
110.95637°
Mean motion
3.5808 °/min
Orbital period
100.54 mins
BSTAR
0.0020886

Documentation

Showing up to 5 results
|